Dubuque, IA

5:05 PM CDT on August 16, 2017 (GMT -0500)
Dubuque Regional

Weather History for KDBQ - September, 2014

Change the Weather History Date:

Wednesday, September 3, 2014

  Actual Average Record
Temperature  
Mean Temperature 68 °F 67 °F  
Max Temperature 81 °F 77 °F 95 °F (1939)
Min Temperature 54 °F 57 °F 41 °F (1974)
Degree Days  
Heating Degree Days 0 2  
Month to date heating degree days 0 6  
Since 1 July heating degree days 29 33  
Cooling Degree Days 3 4  
Month to date cooling degree days 11 12  
Year to date cooling degree days 493 588  
Growing Degree Days 18 (Base 50)    
Moisture  
Dew Point 62 °F    
Average Humidity 79    
Maximum Humidity 100    
Minimum Humidity 58    
Precipitation  
Precipitation 0.00 in 0.12 in 3.09 in (1934)
Month to date precipitation 0.45 0.37  
Year to date precipitation 30.60 26.35  
Snow  
Snow 0.00 in 0.00 in - ()
Month to date snowfall 0.0 0.0  
Since 1 July snowfall 0.0 0.0  
Since 1 September snowfall 0.0 0.0  
Snow Depth 0.00 in    
Sea Level Pressure  
Sea Level Pressure 29.94 in    
Wind  
Wind Speed 10 mph (South)    
Max Wind Speed 21 mph    
Max Gust Speed 29 mph    
Visibility 10 miles    
Events      
T = Trace of Precipitation, MM = Missing Value Source: NWS Daily Summary

Daily Weather History Graph

Daily Weather History Graph

Search for Another Location

Airport or City:

Trip Planner

Search our weather history database for the weather conditions in past years. The results will help you decide how hot, cold, wet, or windy it might be!

Date:

Astronomy

Sep. 03, 2014 Rise Set
Actual Time 6:30 AM CDT 7:33 PM CDT
Civil Twilight 6:01 AM CDT 8:02 PM CDT
Nautical Twilight 5:26 AM CDT 8:36 PM CDT
Astronomical Twilight 4:50 AM CDT 9:12 PM CDT
Moon 3:19 PM CDT (9/3) 12:20 AM CDT (9/3)
Length of Visible Light 14h 00m
Length of Day
13h 03m
Waxing Gibbous, 64% of the Moon is Illuminated
Sep 3
Waxing Gibbous
Sep 8
Full
Sep 15
Last Quarter
Sep 24
New
Oct 1
First Quarter

Hourly Weather History & Observations

Time (CDT) Temp. Heat Index Dew Point Humidity Pressure Visibility Wind Dir Wind Speed Gust Speed Precip Events Conditions
12:53 AM 59.0 °F - 57.0 °F 93% 29.98 in 10.0 mi Calm Calm - N/A   Clear
1:53 AM 57.9 °F - 55.9 °F 93% 29.99 in 10.0 mi SSW 3.5 mph - N/A   Clear
2:53 AM 57.0 °F - 55.9 °F 96% 29.99 in 10.0 mi SSW 3.5 mph - N/A   Clear
3:53 AM 57.0 °F - 55.9 °F 96% 29.99 in 10.0 mi Calm Calm - N/A   Clear
4:53 AM 55.9 °F - 55.0 °F 97% 29.99 in 10.0 mi Calm Calm - N/A   Clear
5:53 AM 57.0 °F - 55.0 °F 93% 29.99 in 10.0 mi Calm Calm - N/A   Clear
6:53 AM 55.0 °F - 53.1 °F 93% 30.00 in 10.0 mi Calm Calm - N/A   Clear
7:53 AM 61.0 °F - 59.0 °F 93% 30.00 in 10.0 mi SSW 3.5 mph - N/A   Clear
8:53 AM 66.0 °F - 62.1 °F 87% 30.00 in 10.0 mi South 4.6 mph - N/A   Clear
9:53 AM 71.1 °F - 62.1 °F 73% 30.01 in 10.0 mi SSW 11.5 mph - N/A   Clear
10:53 AM 73.9 °F - 62.1 °F 66% 30.01 in 10.0 mi South 16.1 mph - N/A   Clear
11:53 AM 75.9 °F - 66.0 °F 71% 30.00 in 10.0 mi SSW 8.1 mph - N/A   Scattered Clouds
12:53 PM 78.1 °F - 66.0 °F 66% 29.97 in 10.0 mi South 12.7 mph - N/A   Partly Cloudy
1:53 PM 79.0 °F - 66.9 °F 66% 29.94 in 10.0 mi South 13.8 mph - N/A   Clear
2:53 PM 81.0 °F 83.0 °F 66.0 °F 60% 29.91 in 10.0 mi South 18.4 mph - N/A   Clear
3:53 PM 81.0 °F 82.7 °F 64.9 °F 58% 29.88 in 10.0 mi South 17.3 mph - N/A   Clear
4:53 PM 81.0 °F 82.5 °F 64.0 °F 56% 29.86 in 10.0 mi South 17.3 mph 26.5 mph N/A   Clear
5:53 PM 80.1 °F 82.1 °F 66.0 °F 62% 29.87 in 10.0 mi South 10.4 mph - N/A   Clear
6:53 PM 77.0 °F - 68.0 °F 74% 29.88 in 10.0 mi South 10.4 mph - N/A   Clear
7:53 PM 73.0 °F - 68.0 °F 84% 29.86 in 10.0 mi South 10.4 mph - N/A   Clear
8:53 PM 72.0 °F - 68.0 °F 87% 29.85 in 10.0 mi South 13.8 mph - N/A   Clear
9:53 PM 72.0 °F - 69.1 °F 91% 29.85 in 10.0 mi South 12.7 mph - N/A   Clear
10:53 PM 72.0 °F - 68.0 °F 87% 29.83 in 10.0 mi South 17.3 mph - N/A   Clear
11:53 PM 72.0 °F - 68.0 °F 87% 29.86 in 10.0 mi SSW 15.0 mph - N/A   Clear